Regional Weather Roundup
Issued by NWS Green Bay, WI

Home | Current Version | Previous Version | Graphics & Text | Print | Product List | Glossary Off
Versions: 1 2 3 4 5 6 7 8 9 10 11 12 13 14 15 16 17 18 19 20 21 22 23 24 25 26 27 28 29 30 31 32 33 34 35 36 37 38 39 40 41 42 43 44 45 46 47 48 49 50

942
ASUS43 KGRB 241000
RWRGRB

NORTH-CENTRAL AND NORTHEAST WISCONSIN REGIONAL WEATHER ROUNDUP
NATIONAL WEATHER SERVICE GREEN BAY WI
500 AM CDT WED MAY 24 2017

WIZ005-009-010>012-018-019-241100-
NORTH CENTRAL WISCONSIN

CITY           SKY/WX    TMP DP  RH WIND       PRES   REMARKS
IRONWOOD       LGT RAIN  43  42  97 CALM      29.81S
MANITOWISH WTR NOT AVBL
ARBOR VITAE    NOT AVBL
EAGLE RIVER    NOT AVBL
LAND O LAKES   NOT AVBL
RHINELANDER    RAIN      47  44  90 N5        29.76S
PHILLIPS       NOT AVBL
ANTIGO         NOT AVBL
TOMAHAWK       NOT AVBL
MERRILL        NOT AVBL
$$

WIZ013-073-241100-
NORTHEAST WISCONSIN

CITY           SKY/WX    TMP DP  RH WIND       PRES   REMARKS
IRON MOUNTAIN  LGT RAIN  47  43  86 N10       29.73S
MARINETTE      LGT RAIN  47  46  97 N7        29.72S
$$

WIZ017-030-035>037-045-241100-
CENTRAL WISCONSIN

CITY           SKY/WX    TMP DP  RH WIND       PRES   REMARKS
MEDFORD        NOT AVBL
WAUSAU         LGT RAIN  47  46  97 N3        29.72R
MOSINEE        NOT AVBL
MARSHFIELD     LGT RAIN  49  46  90 NE9       29.71S
WISC RAPIDS    LGT RAIN  49  47  93 NE9G18    29.72S FOG
STEVENS POINT  NOT AVBL
WAUPACA        NOT AVBL
SHAWANO        NOT AVBL
CLINTONVILLE   NOT AVBL
WAUTOMA        CLOUDY    48  47  96 N10       29.69F
$$

WIZ038-039-048-051-241100-
FOX VALLEY

CITY           SKY/WX    TMP DP  RH WIND       PRES   REMARKS
NWS GREEN BAY  CLOUDY    49  49 100 NE15      29.69S
APPLETON       NOT AVBL
OSHKOSH        CLOUDY    50  48  93 NE9       29.67S FOG
FOND DU LAC    CLOUDY    50  48  93 NE7       29.67S
$$

WIZ022-050-052-241100-
EAST CENTRAL WISCONSIN

CITY           SKY/WX    TMP DP  RH WIND       PRES   REMARKS
EPHRAIM        NOT AVBL
WASHINGTON ISL NOT AVBL
STURGEON BAY   CLOUDY    48  46  93 NE6       29.71R
MANITOWOC      NOT AVBL
SHEBOYGAN      LGT RAIN  48  48 100 NE6       29.67S FOG
$$

LMZ563-521-522-541>543-241100-
LAKESHORE

STATION/POSITION TIME  TEMP    WIND        PRES    VSBY  WAVE
                       AIR SEA DIR/SP/G                  HT/PER
                 (UTC) (F)     (DEG/KT/KT) (MB)    (MI)  (FT/S)
SHEBOYGAN LKSHOR 0900   45      10/ 12/ 13 1005.0F
KEWAUNEE LKSHORE 0930   46      20/  9/ 17 1005.1S
NORTHPORT PIER   0940   47      20/  5/  7 1006.4S
N MID LAKE BUOY  0850   42 39   40/ 10/ 12 1007.0F         1/ 3
CHAMBERS ISLAND  0940   46     360/ 11/ 13 1005.8F
MENOMINEE LKSHOR 0924           10/ 11/ 13 1005.5
$$




USA.gov is the U.S. government's official web portal to all federal, state and local government web resources and services.